Temp
-8 -7 -7 -7 -7 -8 -8 -8 -10 -10 -10 -10 -9 -10 -11 -11 -11 -11 -11 -12 -12 -12 -12 -13 -13 -13 -13 -13 -13 -13 -13 -13 -15 -14 -13 -13 -13 -13 -13 -13 -13 -13 -12 -12 -12 -12 -12 -11 -11
-6 -6 -7 -7 -7 -7 -8 -9 -10 -9 -10 -9 -9 -10 -11 -11 -12 -12 -12 -12 -12 -12 -13 -13 -13 -13 -13 -13 -13 -13 -13 -13 -13 -14 -14 -13 -13 -13 -13 -13 -13 -13 -13 -12 -12 -12 -12 -12 -12
-7 -7 -7 -6 -6 -6 -7 -9 -9 -10 -10 -10 -10 -10 -11 -11 -12 -11 -12 -12 -12 -12 -13 -13 -13 -13 -13 -13 -13 -13 -13 -13 -13 -14 -14 -14 -14 -14 -13 -13 -13 -13 -13 -13 -13 -12 -12 -12 -12
-7 -7 -6 -6 -6 -7 -7 -7 -8 -10 -10 -10 -10 -10 -11 -11 -12 -12 -12 -12 -12 -12 -12 -13 -13 -13 -13 -13 -13 -13 -13 -13 -13 -13 -14 -14 -14 -14 -14 -13 -13 -13 -14 -13 -13 -13 -12 -12 -12
-6 -6 -6 -6 -7 -6 -7 -7 -8 -9 -9 -10 -10 -10 -11 -11 -11 -12 -12 -12 -11 -12 -12 -13 -13 -13 -13 -12 -13 -13 -13 -13 -13 -13 -14 -13 -14 -13 -13 -13 -13 -14 -15 -14 -13 -13 -13 -12 -12
-5 -6 -6 -7 -7 -7 -7 -7 -8 -9 -10 -10 -10 -10 -11 -11 -11 -11 -12 -12 -12 -12 -12 -12 -12 -12 -12 -12 -12 -13 -13 -13 -13 -13 -13 -13 -13 -13 -13 -13 -13 -14 -15 -14 -14 -13 -13 -13 -13
-6 -7 -7 -7 -7 -7 -7 -7 -8 -9 -10 -10 -10 -10 -11 -11 -11 -11 -11 -12 -12 -12 -12 -12 -12 -12 -12 -12 -12 -12 -13 -12 -13 -13 -12 -12 -12 -13 -13 -13 -13 -14 -14 -14 -14 -13 -13 -13 -13
-6 -7 -7 -7 -7 -7 -8 -8 -9 -9 -9 -9 -10 -11 -11 -11 -11 -11 -11 -11 -12 -12 -12 -12 -12 -12 -12 -12 -13 -12 -12 -12 -12 -12 -12 -12 -12 -12 -13 -13 -13 -13 -13 -13 -13 -13 -13 -13 -13
-7 -7 -7 -7 -7 -8 -8 -8 -9 -9 -9 -9 -9 -10 -10 -11 -11 -11 -11 -11 -12 -12 -12 -12 -12 -12 -12 -12 -13 -12 -13 -12 -13 -13 -13 -13 -13 -13 -13 -13 -13 -13 -13 -13 -13 -13 -13 -13 -12
-7 -7 -7 -7 -7 -7 -8 -8 -8 -8 -8 -9 -9 -9 -9 -10 -10 -11 -11 -11 -12 -12 -12 -12 -12 -12 -12 -12 -12 -13 -13 -12 -12 -13 -13 -14 -13 -13 -13 -13 -13 -13 -13 -13 -13 -13 -13 -13 -13
-7 -7 -6 -7 -7 -7 -7 -8 -8 -8 -9 -9 -10 -10 -10 -9 -10 -10 -11 -11 -11 -11 -12 -12 -12 -12 -12 -12 -12 -13 -13 -13 -13 -13 -13 -13 -13 -14 -13 -13 -13 -13 -14 -14 -13 -13 -13 -13 -13
-7 -7 -7 -7 -7 -7 -8 -8 -8 -9 -9 -9 -10 -10 -10 -10 -10 -10 -10 -11 -11 -11 -12 -12 -12 -12 -12 -12 -12 -13 -13 -13 -13 -13 -13 -14 -14 -14 -13 -13 -13 -13 -13 -13 -13 -13 -13 -13 -13
-7 -7 -7 -7 -7 -7 -7 -8 -8 -9 -9 -9 -10 -11 -11 -11 -10 -11 -11 -11 -11 -11 -12 -12 -12 -12 -12 -12 -12 -12 -13 -13 -14 -13 -14 -14 -14 -13 -13 -13 -13 -13 -13 -13 -13 -13 -13 -14 -14
-7 -7 -7 -7 -7 -7 -8 -8 -9 -9 -9 -10 -10 -11 -11 -11 -10 -11 -11 -11 -11 -11 -12 -12 -12 -12 -12 -12 -12 -13 -13 -13 -13 -13 -14 -14 -13 -13 -13 -13 -13 -13 -13 -13 -13 -13 -13 -13 -14
-7 -7 -8 -7 -7 -7 -8 -8 -9 -9 -9 -10 -10 -11 -10 -10 -11 -11 -11 -11 -11 -11 -12 -12 -12 -12 -12 -12 -12 -13 -13 -13 -13 -13 -13 -14 -13 -13 -13 -13 -13 -13 -13 -13 -13 -14 -14 -14 -14
-7 -7 -8 -7 -7 -7 -7 -8 -9 -9 -9 -10 -10 -11 -11 -11 -11 -11 -12 -12 -12 -11 -12 -11 -12 -12 -12 -12 -12 -12 -13 -13 -13 -13 -13 -13 -13 -13 -13 -13 -13 -13 -13 -14 -14 -14 -14 -14 -14
-8 -7 -8 -8 -7 -7 -8 -8 -9 -9 -9 -10 -10 -11 -11 -11 -11 -12 -12 -12 -12 -12 -12 -12 -12 -12 -12 -12 -12 -12 -13 -13 -13 -13 -13 -13 -13 -13 -13 -14 -14 -13 -13 -14 -14 -14 -14 -14 -14
-8 -7 -8 -8 -8 -8 -8 -9 -9 -8 -9 -10 -11 -11 -11 -11 -11 -12 -12 -12 -12 -12 -12 -12 -12 -12 -12 -12 -12 -12 -13 -13 -13 -13 -13 -13 -13 -13 -14 -14 -14 -14 -14 -14 -14 -14 -15 -15 -15
-8 -8 -8 -9 -9 -9 -9 -9 -9 -9 -9 -10 -11 -12 -11 -12 -12 -12 -12 -12 -12 -12 -12 -12 -12 -13 -12 -12 -12 -12 -12 -13 -13 -13 -13 -13 -13 -14 -14 -14 -14 -14 -14 -14 -14 -15 -15 -15 -15
-8 -8 -9 -10 -10 -9 -9 -9 -10 -9 -10 -10 -11 -12 -12 -12 -12 -12 -12 -12 -12 -12 -12 -13 -13 -13 -13 -13 -13 -12 -12 -13 -13 -13 -13 -13 -14 -14 -14 -14 -14 -14 -14 -15 -15 -15 -15 -15 -16
-10 -10 -10 -10 -10 -10 -10 -10 -10 -10 -10 -10 -11 -12 -12 -12 -12 -13 -12 -12 -12 -12 -13 -13 -13 -13 -13 -13 -13 -13 -13 -13 -13 -13 -14 -14 -13 -14 -14 -14 -14 -14 -14 -15 -15 -15 -16 -15 -16
-9 -10 -10 -10 -10 -10 -11 -10 -10 -10 -11 -11 -11 -12 -12 -13 -12 -13 -12 -12 -12 -13 -13 -13 -13 -13 -13 -13 -14 -13 -13 -13 -13 -14 -14 -13 -14 -14 -14 -14 -14 -14 -14 -15 -15 -15 -16 -16 -16
-10 -10 -10 -10 -10 -10 -11 -10 -10 -11 -11 -11 -12 -12 -12 -13 -13 -13 -12 -12 -12 -13 -13 -13 -13 -13 -13 -13 -13 -13 -13 -14 -14 -14 -14 -13 -14 -14 -14 -14 -14 -14 -14 -14 -15 -15 -16 -16 -16
-11 -11 -11 -11 -11 -10 -11 -11 -11 -11 -12 -12 -12 -11 -13 -13 -12 -13 -13 -13 -13 -13 -13 -13 -13 -13 -13 -13 -13 -13 -14 -14 -14 -14 -14 -14 -14 -14 -14 -14 -14 -14 -14 -14 -15 -15 -16 -16 -17
-11 -12 -11 -11 -11 -10 -11 -11 -11 -12 -12 -13 -13 -13 -13 -13 -13 -13 -13 -13 -13 -13 -13 -13 -13 -13 -13 -13 -13 -14 -14 -14 -14 -14 -14 -15 -15 -14 -14 -14 -14 -14 -14 -14 -15 -15 -16 -16 -17
-11 -12 -12 -11 -10 -10 -12 -11 -11 -12 -12 -12 -12 -13 -13 -12 -13 -13 -13 -13 -13 -13 -13 -13 -13 -13 -13 -13 -13 -14 -14 -14 -14 -15 -15 -15 -14 -14 -14 -14 -14 -14 -14 -15 -15 -16 -16 -17 -17
-11 -11 -12 -12 -11 -10 -10 -10 -11 -11 -12 -12 -13 -13 -13 -13 -13 -13 -13 -13 -13 -13 -13 -13 -13 -13 -13 -13 -13 -13 -14 -14 -14 -14 -15 -15 -14 -14 -14 -14 -14 -14 -14 -15 -15 -16 -17 -17 -18
-10 -11 -12 -11 -11 -10 -10 -10 -10 -12 -12 -13 -12 -13 -13 -13 -13 -14 -13 -13 -13 -13 -13 -13 -13 -13 -13 -13 -13 -14 -14 -14 -14 -14 -14 -14 -14 -14 -14 -14 -14 -14 -15 -15 -16 -16 -17 -17 -18
-11 -11 -11 -11 -11 -11 -11 -10 -11 -12 -13 -13 -12 -12 -12 -13 -13 -14 -13 -13 -13 -13 -13 -13 -13 -13 -13 -13 -14 -14 -14 -14 -14 -14 -14 -14 -14 -14 -15 -14 -15 -15 -15 -15 -16 -17 -17 -18 -18
-11 -11 -12 -11 -11 -12 -12 -10 -11 -12 -13 -13 -13 -12 -13 -13 -13 -13 -14 -13 -13 -13 -13 -13 -13 -13 -13 -14 -14 -14 -14 -14 -14 -14 -14 -14 -14 -15 -14 -15 -15 -15 -15 -16 -16 -17 -18 -18 -19
Height
5912 5910 5908 5907 5908 5904 5903 5902 5898 5898 5898 5896 5894 5889 5884 5878 5879 5880 5876 5873 5870 5868 5865 5862 5860 5859 5859 5858 5858 5857 5855 5854 5852 5853 5852 5851 5851 5850 5849 5849 5848 5848 5847 5846 5845 5844 5845 5845 5846
5914 5912 5908 5907 5908 5903 5902 5899 5897 5898 5898 5897 5892 5889 5886 5882 5879 5878 5875 5871 5869 5866 5864 5861 5859 5858 5857 5856 5856 5855 5854 5853 5852 5851 5851 5850 5849 5848 5848 5848 5847 5846 5845 5844 5843 5842 5842 5842 5844
5914 5912 5910 5907 5906 5905 5903 5899 5897 5896 5896 5892 5888 5886 5884 5882 5879 5876 5873 5870 5867 5863 5861 5859 5857 5856 5855 5854 5853 5852 5851 5850 5850 5849 5849 5848 5847 5847 5846 5846 5845 5844 5843 5841 5841 5840 5840 5840 5840
5913 5912 5911 5910 5907 5905 5902 5900 5897 5896 5896 5893 5890 5888 5883 5881 5877 5875 5871 5869 5866 5863 5860 5857 5855 5855 5854 5852 5851 5850 5849 5848 5848 5847 5846 5846 5845 5844 5843 5842 5842 5841 5838 5838 5839 5838 5837 5836 5837
5913 5912 5912 5909 5908 5907 5905 5901 5898 5896 5895 5892 5891 5888 5882 5878 5876 5873 5870 5866 5865 5862 5858 5855 5854 5853 5852 5851 5848 5847 5846 5845 5845 5844 5843 5843 5842 5842 5841 5839 5838 5836 5835 5836 5836 5835 5834 5833 5833
5914 5912 5909 5908 5907 5905 5904 5902 5898 5895 5894 5893 5892 5888 5882 5878 5874 5871 5867 5866 5863 5859 5857 5855 5853 5851 5849 5848 5847 5846 5845 5844 5843 5842 5840 5840 5839 5839 5839 5838 5835 5834 5834 5834 5833 5833 5831 5830 5830
5913 5910 5908 5906 5906 5905 5903 5902 5897 5895 5895 5894 5891 5886 5881 5876 5872 5869 5866 5862 5861 5859 5857 5856 5854 5852 5849 5846 5845 5844 5844 5843 5842 5840 5837 5837 5837 5837 5837 5835 5834 5834 5833 5833 5832 5830 5828 5827 5826
5912 5910 5910 5907 5906 5903 5901 5899 5896 5895 5895 5892 5887 5882 5878 5873 5869 5867 5864 5861 5860 5859 5857 5855 5853 5851 5849 5848 5847 5844 5843 5842 5840 5840 5838 5838 5837 5837 5837 5835 5833 5833 5832 5831 5829 5828 5827 5825 5823
5911 5909 5908 5907 5905 5904 5900 5898 5896 5894 5891 5888 5883 5879 5876 5872 5867 5865 5863 5860 5859 5858 5857 5854 5852 5850 5848 5846 5846 5844 5843 5841 5840 5839 5838 5837 5837 5836 5835 5835 5834 5832 5830 5830 5827 5826 5825 5823 5821
5911 5909 5908 5906 5903 5901 5899 5895 5894 5893 5890 5886 5882 5877 5875 5871 5868 5865 5862 5858 5857 5857 5855 5854 5852 5848 5847 5845 5843 5842 5841 5839 5838 5837 5836 5837 5836 5836 5834 5832 5831 5830 5828 5827 5826 5823 5821 5819 5817
5910 5907 5905 5905 5902 5900 5898 5896 5894 5892 5888 5883 5879 5875 5872 5868 5866 5864 5861 5858 5857 5855 5854 5852 5850 5847 5845 5842 5840 5839 5839 5838 5837 5836 5835 5835 5834 5833 5832 5831 5829 5827 5826 5825 5822 5819 5817 5815 5812
5908 5905 5900 5902 5901 5900 5897 5895 5893 5890 5888 5882 5876 5872 5870 5867 5864 5862 5861 5858 5856 5854 5853 5852 5850 5848 5845 5841 5839 5837 5835 5835 5835 5835 5833 5834 5833 5832 5831 5830 5828 5827 5825 5822 5820 5818 5815 5812 5809
5904 5901 5897 5898 5897 5895 5894 5891 5891 5889 5885 5880 5874 5871 5869 5866 5863 5862 5860 5858 5856 5854 5852 5851 5849 5846 5843 5841 5838 5835 5834 5833 5833 5833 5833 5833 5832 5832 5831 5830 5828 5825 5823 5821 5818 5815 5812 5809 5806
5901 5900 5894 5895 5894 5892 5891 5889 5887 5887 5883 5878 5873 5869 5867 5864 5863 5861 5859 5857 5854 5853 5852 5850 5847 5845 5842 5842 5841 5836 5832 5831 5833 5832 5831 5831 5831 5830 5830 5829 5826 5824 5821 5819 5816 5812 5809 5805 5802
5897 5897 5893 5890 5891 5888 5885 5886 5884 5884 5881 5877 5871 5867 5866 5863 5861 5859 5857 5855 5853 5852 5850 5848 5844 5841 5840 5839 5840 5838 5834 5829 5829 5832 5831 5832 5831 5829 5827 5825 5822 5820 5816 5814 5811 5808 5805 5802 5799
5892 5892 5889 5888 5885 5882 5879 5880 5879 5881 5877 5873 5870 5864 5863 5860 5858 5857 5856 5854 5853 5850 5847 5846 5843 5840 5839 5837 5837 5837 5835 5833 5829 5829 5830 5830 5829 5827 5824 5822 5820 5817 5814 5810 5807 5804 5801 5797 5793
5885 5885 5884 5881 5880 5876 5875 5873 5872 5873 5871 5868 5866 5862 5859 5859 5856 5854 5853 5852 5850 5848 5846 5844 5842 5840 5838 5838 5836 5835 5835 5832 5829 5828 5828 5827 5826 5825 5822 5820 5817 5814 5811 5807 5803 5800 5796 5792 5788
5878 5879 5879 5878 5874 5869 5867 5867 5865 5867 5865 5864 5861 5858 5856 5856 5853 5851 5851 5849 5848 5846 5844 5843 5841 5839 5837 5835 5834 5834 5834 5832 5830 5827 5827 5825 5821 5820 5818 5815 5812 5809 5806 5802 5798 5795 5791 5787 5782
5872 5872 5872 5873 5870 5865 5864 5860 5858 5860 5859 5858 5856 5854 5852 5852 5850 5847 5847 5846 5845 5843 5842 5841 5840 5837 5834 5831 5830 5829 5828 5829 5827 5826 5823 5820 5818 5816 5814 5811 5808 5804 5801 5798 5793 5789 5785 5781 5777
5862 5863 5866 5865 5861 5858 5856 5854 5851 5852 5852 5853 5851 5850 5849 5850 5847 5843 5843 5843 5841 5840 5839 5838 5836 5834 5832 5830 5827 5826 5826 5825 5824 5822 5819 5817 5815 5812 5810 5807 5805 5801 5796 5792 5788 5784 5780 5776 5771
5854 5855 5858 5855 5853 5849 5848 5845 5844 5847 5845 5847 5846 5845 5845 5846 5844 5840 5839 5839 5838 5837 5835 5834 5832 5831 5829 5826 5825 5823 5822 5820 5819 5817 5815 5813 5811 5807 5805 5803 5800 5796 5792 5787 5783 5778 5772 5768 5764
5845 5847 5847 5847 5845 5843 5840 5836 5838 5839 5840 5841 5841 5840 5839 5840 5841 5837 5835 5835 5833 5833 5831 5831 5830 5828 5825 5822 5820 5818 5817 5815 5813 5812 5811 5807 5806 5804 5801 5799 5795 5792 5787 5783 5777 5772 5767 5761 5755
5833 5837 5836 5836 5834 5833 5832 5832 5829 5833 5835 5836 5834 5834 5832 5832 5834 5831 5830 5830 5830 5829 5827 5826 5825 5823 5820 5817 5815 5813 5811 5810 5807 5806 5804 5803 5802 5799 5797 5794 5789 5786 5781 5777 5772 5767 5761 5755 5750
5825 5824 5824 5826 5825 5818 5828 5827 5819 5824 5828 5827 5826 5827 5827 5826 5827 5825 5826 5826 5825 5824 5822 5821 5819 5818 5816 5813 5811 5809 5808 5807 5804 5802 5800 5799 5797 5795 5792 5788 5784 5779 5775 5770 5765 5760 5755 5749 5743
5818 5817 5815 5813 5813 5810 5822 5813 5813 5815 5818 5818 5819 5820 5819 5820 5821 5819 5820 5820 5819 5818 5817 5815 5814 5813 5811 5809 5807 5805 5804 5803 5801 5798 5796 5794 5792 5788 5785 5782 5778 5773 5769 5763 5758 5752 5747 5741 5735
5809 5809 5806 5803 5804 5807 5806 5800 5806 5808 5808 5809 5811 5811 5810 5813 5814 5814 5815 5814 5813 5812 5811 5809 5808 5806 5805 5805 5803 5802 5800 5799 5797 5793 5791 5789 5785 5782 5779 5776 5772 5767 5762 5756 5750 5744 5739 5733 5727
5804 5798 5802 5796 5795 5792 5794 5798 5797 5800 5800 5801 5802 5803 5806 5807 5807 5808 5809 5808 5807 5807 5804 5804 5803 5800 5799 5799 5798 5798 5796 5793 5792 5788 5786 5783 5779 5775 5772 5768 5765 5760 5755 5750 5743 5737 5731 5724 5718
5794 5796 5792 5789 5788 5785 5783 5788 5792 5790 5793 5795 5796 5797 5799 5801 5802 5803 5804 5803 5801 5800 5798 5798 5797 5794 5793 5793 5792 5792 5790 5787 5785 5782 5780 5776 5772 5768 5765 5761 5756 5752 5747 5742 5735 5728 5722 5715 5709
5787 5782 5782 5784 5780 5777 5777 5778 5787 5784 5784 5789 5790 5789 5792 5795 5795 5797 5797 5796 5794 5793 5792 5791 5791 5789 5787 5787 5786 5785 5784 5781 5779 5776 5773 5769 5765 5761 5758 5754 5748 5743 5738 5732 5725 5719 5712 5706 5700
5777 5775 5774 5773 5774 5772 5770 5769 5779 5776 5778 5782 5785 5785 5787 5789 5787 5789 5790 5790 5789 5787 5786 5785 5783 5783 5782 5781 5781 5779 5777 5775 5772 5769 5766 5763 5758 5753 5750 5745 5740 5734 5728 5721 5715 5709 5703 5696 5690
Wind_Speed
5 2 5 11 8 14 14 19 24 27 27 35 34 32 31 34 20 14 17 17 14 11 12 13 14 14 14 13 9 7 11 12 6 9 12 14 16 16 15 15 15 15 15 16 17 16 16 16 14
1 6 7 13 14 19 19 21 22 25 27 34 34 33 28 30 22 14 16 16 16 14 14 14 15 17 16 17 15 15 15 13 12 9 10 16 16 16 17 17 18 18 18 19 20 20 19 18 16
1 4 8 14 19 28 19 20 23 27 32 35 44 38 30 26 26 21 18 17 14 16 15 14 13 14 15 16 16 17 14 10 12 12 13 15 19 19 18 17 18 21 23 23 22 22 22 21 20
3 6 10 17 19 26 23 25 24 25 29 33 37 39 30 28 24 25 18 14 17 18 17 16 12 11 13 15 16 17 12 8 11 13 15 15 17 17 15 19 19 29 24 24 23 22 23 24 22
8 12 15 16 17 22 21 21 25 25 28 33 36 37 29 28 22 22 18 17 16 15 17 16 12 9 13 15 14 13 7 7 10 13 15 16 17 17 17 20 21 20 18 18 20 22 23 22 21
14 14 16 16 19 23 22 23 24 26 29 32 35 31 27 25 26 21 15 14 15 17 16 14 11 9 13 11 10 10 8 7 12 12 14 16 17 16 16 14 13 14 16 16 17 21 24 27 27
14 15 17 20 22 23 23 25 26 27 29 32 28 27 26 24 24 18 19 17 16 16 13 14 12 10 11 7 8 11 10 13 11 11 9 6 7 7 6 7 7 10 12 16 21 24 27 29 26
14 15 15 19 20 24 24 22 22 25 26 26 26 28 24 22 22 22 20 18 15 15 10 12 13 10 13 10 13 7 6 8 9 6 2 6 3 4 6 5 6 8 12 12 13 13 17 18 19
12 16 18 20 21 21 22 23 25 25 27 27 30 31 24 20 22 21 19 18 14 11 8 11 14 13 13 10 12 10 10 12 12 10 4 8 7 6 7 7 12 12 13 15 13 15 16 18 20
13 17 18 18 21 23 23 23 24 26 26 28 29 30 24 21 19 19 17 17 16 13 10 12 19 18 16 14 16 13 14 12 12 7 5 5 8 11 11 9 10 12 14 16 18 19 20 22 23
15 18 20 17 20 20 23 22 23 21 26 27 27 27 21 22 19 19 18 17 18 13 10 12 14 14 13 15 15 11 11 11 11 10 7 4 8 8 12 11 12 14 15 16 18 20 21 22 23
18 20 24 19 21 21 24 25 23 19 25 25 27 24 21 21 19 19 17 15 13 14 12 14 12 12 17 18 16 11 12 10 10 9 8 8 7 10 10 12 12 14 16 19 21 20 22 24 25
18 22 27 24 24 25 26 25 18 18 23 24 24 22 20 17 17 18 15 12 12 11 11 9 8 12 14 16 16 12 12 7 5 9 9 11 7 8 10 10 13 15 17 19 21 22 23 26 27
22 24 30 27 27 28 28 26 21 20 20 21 22 22 18 17 17 15 13 13 11 10 9 6 8 13 13 12 14 11 8 6 6 7 8 5 7 10 11 12 14 16 19 22 23 25 27 29 30
24 24 27 30 28 31 32 27 19 17 20 19 20 21 17 17 17 14 13 13 12 9 8 11 10 12 12 11 12 12 9 3 2 5 5 5 8 9 11 14 17 20 22 25 27 26 27 28 27
26 27 29 29 31 34 38 34 28 21 20 19 17 19 16 16 17 15 13 13 11 9 9 12 11 9 10 11 12 11 11 7 3 3 5 8 10 12 15 18 21 23 24 26 26 27 28 28 28
31 29 29 32 34 38 36 37 35 31 21 20 21 18 17 16 18 16 15 13 10 10 10 11 11 9 10 12 12 13 11 9 6 6 6 8 13 16 19 22 23 23 25 26 26 27 29 30 30
33 32 31 30 34 40 40 38 40 34 26 22 22 19 19 17 18 18 15 14 13 11 12 13 14 13 12 12 13 13 13 12 11 9 9 12 15 19 22 22 21 23 24 25 27 28 29 30 31
37 37 35 29 36 40 40 42 41 35 29 24 24 23 19 18 16 18 17 16 15 14 13 15 16 16 16 15 15 15 13 15 13 13 14 16 17 20 24 20 20 22 24 26 28 31 32 32 32
44 42 36 33 37 42 41 43 42 36 33 26 25 24 21 15 17 20 19 16 17 17 16 16 16 15 17 16 15 16 16 18 17 17 18 19 20 23 22 22 22 23 25 28 30 32 35 36 36
47 45 39 39 38 44 44 45 41 36 35 29 25 24 22 18 16 22 21 18 18 18 19 19 18 19 20 18 18 16 17 20 21 20 19 21 22 22 19 22 23 25 28 31 34 36 38 40 40
51 48 46 44 43 43 42 47 41 39 35 31 26 23 25 21 18 22 22 20 20 19 19 19 22 22 22 18 17 19 19 21 21 21 21 21 21 19 21 23 25 28 31 35 38 40 40 41 41
52 50 51 49 47 47 46 47 49 40 35 28 28 26 28 26 22 22 22 21 21 20 19 20 23 23 21 19 19 21 19 21 21 22 20 18 19 21 23 25 27 30 33 37 41 43 43 42 42
46 51 53 50 50 57 46 46 48 38 31 31 32 27 27 29 26 23 20 22 22 21 20 21 23 23 21 20 19 20 20 21 21 19 18 19 22 22 24 26 29 32 35 38 41 43 44 45 44
36 42 48 51 51 52 37 43 41 38 32 34 34 36 34 32 25 23 20 22 24 22 22 22 24 22 20 21 21 20 20 21 20 18 19 21 22 24 26 29 31 33 36 40 44 45 46 46 45
32 35 42 45 44 41 39 44 37 35 38 37 34 29 32 29 25 28 28 26 24 25 23 23 24 22 21 22 21 21 20 20 21 21 20 21 24 26 28 30 32 35 38 43 46 48 48 47 47
34 41 38 42 43 45 44 38 37 36 36 32 24 24 22 29 27 22 22 26 26 26 24 24 24 23 21 22 21 21 22 22 22 22 23 24 27 28 30 32 35 38 42 45 49 49 49 49 48
42 38 41 46 46 47 48 38 30 33 29 21 19 25 28 27 22 20 21 24 24 24 25 25 22 22 22 22 22 22 23 23 25 26 27 27 29 31 33 35 38 41 45 48 51 51 50 50 49
39 44 45 43 46 49 48 41 24 28 29 21 20 23 30 20 22 21 22 23 24 25 26 24 21 21 22 22 23 23 23 24 26 28 30 32 32 33 36 38 40 44 48 51 53 53 51 50 49
41 41 43 44 41 41 44 42 27 30 23 22 26 14 21 16 23 23 20 25 27 28 28 25 22 21 21 23 22 23 24 26 28 31 33 35 36 38 37 40 44 46 51 54 56 54 52 51 50
Wind_Direction
102 28 342 345 349 355 358 355 360 0 350 343 347 356 343 323 15 359 344 342 342 349 9 18 7 355 350 357 2 313 321 319 267 292 299 296 288 284 280 279 277 273 267 265 266 262 262 264 266
58 347 334 345 353 355 3 2 354 355 346 348 354 355 341 347 352 343 350 349 343 355 11 13 7 360 349 337 336 340 341 329 322 282 267 291 288 278 278 278 279 275 272 270 267 268 265 266 270
66 333 332 340 358 17 7 4 350 346 340 343 353 350 343 339 333 340 343 338 346 356 2 6 2 355 347 350 339 335 320 313 291 299 280 279 283 284 277 279 277 279 274 268 267 269 271 271 271
299 308 328 354 355 6 7 7 353 339 336 337 343 345 340 340 333 333 339 341 350 355 355 355 348 346 334 329 331 326 313 308 306 307 294 289 290 290 284 270 283 290 258 268 273 275 275 277 280
312 340 350 352 354 360 7 5 357 341 338 336 335 339 336 334 328 330 342 344 347 351 355 346 335 329 323 318 339 322 282 301 313 306 299 291 287 291 286 291 298 294 272 266 269 275 277 281 288
341 344 341 346 346 355 359 2 358 339 329 329 330 335 331 334 327 336 346 344 346 358 0 3 11 336 305 315 318 311 287 313 324 312 311 296 278 283 296 300 294 279 268 272 273 275 279 284 289
344 337 334 337 345 347 355 1 356 340 325 322 330 327 326 327 334 339 334 346 352 353 350 355 342 343 0 330 314 307 296 304 310 319 318 304 291 278 280 283 299 298 293 285 285 287 289 287 285
332 327 321 321 342 344 346 347 340 337 336 330 330 330 330 330 337 333 335 346 350 3 6 15 11 13 13 7 342 323 324 331 315 5 21 3 355 326 312 313 319 307 303 302 303 294 294 297 296
318 313 315 326 336 335 333 337 335 341 338 331 328 328 330 332 332 333 334 338 343 345 7 10 360 341 344 340 342 316 319 314 322 302 261 344 339 315 333 295 295 294 295 297 301 295 292 294 292
304 301 309 319 326 333 334 332 340 336 334 330 325 326 327 328 330 331 330 334 334 338 342 332 347 339 333 324 325 319 317 316 307 281 260 318 330 341 327 318 315 316 314 311 303 298 301 300 298
292 297 299 311 317 325 325 326 332 327 335 331 325 324 327 329 334 331 329 331 328 326 312 331 332 349 350 341 334 321 326 319 305 297 330 315 319 328 315 327 337 333 325 319 315 320 320 317 313
289 296 299 302 311 323 324 326 330 326 333 327 324 323 324 327 331 328 324 326 319 320 326 335 337 346 349 346 339 322 312 299 296 277 310 319 322 312 321 335 337 331 331 328 325 326 323 320 318
291 296 297 306 314 320 321 324 328 318 326 329 323 318 321 322 325 323 318 314 309 314 326 321 323 336 353 350 340 329 326 317 297 286 289 319 301 323 331 333 330 330 328 321 317 317 318 319 321
288 294 297 305 310 312 315 321 324 315 325 329 318 316 315 313 322 322 313 302 311 319 312 312 326 358 0 5 352 1 356 353 312 300 297 289 311 316 331 332 332 334 328 323 322 321 322 322 320
283 286 290 295 302 307 309 318 309 309 321 339 321 316 305 309 319 315 307 300 303 307 316 330 349 6 3 354 341 342 351 20 319 317 322 310 303 319 332 331 329 326 325 325 325 323 321 317 315
282 285 286 293 300 301 306 312 310 313 326 338 329 319 313 311 316 311 301 293 295 305 318 321 336 351 338 342 340 328 333 327 312 317 333 330 325 326 327 327 324 322 323 325 324 323 320 319 319
280 282 284 291 295 295 302 304 305 312 328 331 328 318 309 310 314 307 300 290 294 302 310 308 316 325 322 323 325 323 312 313 314 311 314 318 318 324 327 323 320 321 320 320 320 318 318 319 319
272 277 279 284 289 293 297 298 298 308 323 320 325 323 308 304 309 297 294 288 290 296 304 301 308 310 309 307 308 311 311 304 299 303 304 310 321 326 324 316 317 318 318 318 317 318 320 321 320
272 274 277 280 282 284 286 290 295 306 314 318 317 317 305 300 299 290 290 289 289 288 294 298 297 301 298 301 308 296 299 299 300 301 302 307 316 316 315 314 313 311 314 315 319 321 322 322 321
270 272 276 277 278 281 284 288 292 303 306 313 307 310 298 287 288 290 286 282 281 286 295 299 298 299 298 298 296 291 290 290 289 290 295 302 304 305 310 309 308 307 312 314 316 318 319 321 321
269 273 275 275 276 280 284 284 288 295 296 302 300 304 300 277 284 284 280 277 276 284 291 296 295 302 300 293 292 288 281 279 279 286 296 300 300 301 304 303 305 312 316 318 319 319 321 322 323
266 270 269 272 274 275 276 281 287 290 291 296 291 289 283 272 276 281 272 270 271 279 284 288 291 302 302 296 293 286 288 285 286 294 297 298 296 298 299 299 311 316 321 321 321 321 322 323 324
264 265 268 268 271 274 272 282 287 281 288 287 280 281 273 268 270 272 268 269 274 273 278 284 294 302 298 295 296 293 294 289 289 290 291 288 293 295 299 308 315 318 320 320 319 320 320 322 322
268 267 267 267 269 269 275 282 280 283 286 271 272 282 267 262 267 262 265 271 270 274 276 284 293 300 296 295 293 289 289 285 283 282 285 289 291 298 305 310 314 317 317 317 318 319 320 321 321
268 267 269 269 269 276 279 272 278 279 275 273 272 279 265 251 255 252 258 267 270 272 276 283 291 295 295 291 289 285 285 282 277 275 282 286 293 301 307 310 313 315 315 317 318 319 320 319 319
266 259 261 267 272 275 267 267 272 270 270 271 274 270 249 241 244 254 257 265 265 272 276 284 288 289 290 288 286 285 283 278 277 280 284 289 295 301 307 308 310 312 314 316 318 319 319 318 318
273 264 265 265 265 267 269 267 272 276 273 273 252 250 248 250 246 250 252 260 264 272 277 284 284 285 286 285 283 280 280 280 283 287 292 297 298 302 304 306 310 312 314 316 316 317 318 318 318
275 269 260 265 269 272 274 272 273 275 274 254 241 239 242 238 251 249 256 261 268 276 282 281 279 280 282 284 282 279 281 284 288 293 297 300 302 303 304 306 309 312 314 315 315 316 318 317 318
273 271 266 267 265 271 278 275 278 270 267 240 245 239 233 248 242 248 260 279 282 284 281 278 275 274 278 281 278 280 283 288 294 298 300 302 302 301 303 306 309 310 312 314 314 316 317 317 317
270 267 265 266 268 268 271 278 270 267 264 231 245 232 228 260 258 246 263 282 282 278 278 272 271 271 273 276 277 281 289 295 297 298 297 299 301 302 303 305 306 310 312 312 314 316 316 317 317